This demonstration page uses our WeatherBlox Daily Observations layout. Learn more.

Left ArrowRight Arrow

39.51506, -84.39828

Hourly Observations for July 29, 2021

Temp ( °F °C ) Dew Point ( °F °C ) Humidity (%) Winds ( mph kmh ) Pressure ( in mb ) Visibility ( mi km ) Precip ( " mm )
12:15 am 00:15 Hazy 72 22 N/A N/A N N/A 29.99 1016 7 11 N/A
12:35 am 00:35 Clear 72 22 N/A N/A N N/A 30.00 1016 7 11 N/A
12:55 am 00:55 Clear 72 22 N/A N/A N N/A 30.00 1016 7 11 N/A
1:15 am 01:15 Hazy 72 22 N/A N/A N N/A 29.99 1016 7 11 N/A
1:35 am 01:35 Hazy 72 22 N/A N/A N N/A 30.00 1016 5 8 N/A
1:55 am 01:55 Hazy 70 21 N/A N/A N N/A 30.00 1016 5 8 N/A
2:15 am 02:15 Clear 72 22 N/A N/A N N/A 30.00 1016 7 11 N/A
2:35 am 02:35 Hazy 70 21 N/A N/A N N/A 30.00 1016 5 8 N/A
2:55 am 02:55 Hazy 70 21 N/A N/A N N/A 30.00 1016 5 8 N/A
3:15 am 03:15 Clear with Mist and Fog 70 21 N/A N/A N N/A 29.98 1015 4 6 N/A
3:35 am 03:35 Clear with Mist and Fog 70 21 N/A N/A NW 3 6 29.99 1016 3 5 N/A
3:55 am 03:55 Hazy 70 21 N/A N/A N N/A 30.00 1016 5 8 N/A
4:15 am 04:15 Clear 70 21 N/A N/A N N/A 29.99 1016 7 11 N/A
4:35 am 04:35 Hazy 70 21 N/A N/A N N/A 30.00 1016 4 6 N/A
4:55 am 04:55 Hazy 70 21 N/A N/A N N/A 30.00 1016 5 8 N/A
5:15 am 05:15 Hazy 70 21 N/A N/A N N/A 29.99 1016 5 8 N/A
5:35 am 05:35 Hazy 70 21 N/A N/A SW 3 6 29.98 1015 5 8 N/A
5:55 am 05:55 Hazy 70 21 N/A N/A SW 5 7 29.96 1015 4 6 N/A
6:15 am 06:15 Hazy 70 21 N/A N/A WSW 6 9 29.97 1015 5 8 N/A
6:35 am 06:35 Hazy 70 21 N/A N/A WSW 3 6 29.98 1015 5 8 N/A
6:55 am 06:55 Hazy 70 21 N/A N/A SSW 5 7 29.98 1015 5 8 N/A
7:15 am 07:15 Hazy 72 22 N/A N/A SSW 5 7 29.97 1015 5 8 N/A
7:35 am 07:35 Sunny with Mist and Fog 72 22 N/A N/A W 5 7 29.99 1016 4 6 N/A
7:55 am 07:55 Sunny with Mist and Fog 72 22 N/A N/A SW 6 9 30.00 1016 4 6 N/A
8:15 am 08:15 Sunny with Nearby Thunderstorms 72 22 N/A N/A N N/A 30.01 1016 4 6 N/A
8:35 am 08:35 Partly Cloudy with Light Rain 72 22 N/A N/A SSW 6 9 29.99 1016 5 8 N/A
8:55 am 08:55 Mostly Cloudy with Light Rain 73 23 N/A N/A N N/A 29.98 1015 5 8 N/A
9:15 am 09:15 Mostly Cloudy with Light Rain 73 23 N/A N/A SSW 8 13 29.95 1014 4 6 N/A
9:35 am 09:35 Partly Cloudy with Mist and Fog N/A N/A N/A SW 9 15 N/A 4 6 N/A
9:55 am 09:55 Sunny with Mist and Fog 75 24 75 24 100 100 WSW 10 17 29.95 1014 5 8 N/A
10:15 am 10:15 Hazy N/A N/A N/A WSW 12 19 N/A 7 11 N/A
10:35 am 10:35 Hazy N/A N/A N/A WSW 10 17 N/A 7 11 N/A
10:55 am 10:55 Sunny N/A N/A N/A WSW 13 20 N/A 7 11 N/A
11:15 am 11:15 Sunny N/A N/A N/A WSW 12 19 N/A 10 16 N/A
11:35 am 11:35 Sunny N/A N/A N/A WSW 15 24 N/A 10 16 N/A
11:55 am 11:55 Sunny N/A N/A N/A WSW 15 24 N/A 10 16 N/A
12:15 pm 12:15 Sunny N/A N/A N/A WSW 10 17 N/A 10 16 N/A
12:35 pm 12:35 Sunny N/A N/A N/A WSW 15 24 N/A 10 16 N/A
12:55 pm 12:55 Partly Cloudy N/A N/A N/A W 9 15 N/A 10 16 N/A
1:15 pm 13:15 Sunny N/A N/A N/A WSW 13 20 N/A 10 16 N/A
1:35 pm 13:35 Partly Cloudy N/A N/A N/A WSW 12 19 N/A 10 16 N/A
1:55 pm 13:55 Sunny N/A N/A N/A WSW 13 20 N/A 10 16 N/A
2:15 pm 14:15 Sunny N/A N/A N/A W 13 20 N/A 10 16 N/A
2:35 pm 14:35 Partly Cloudy N/A N/A N/A W 14 22 N/A 10 16 N/A
2:55 pm 14:55 Partly Cloudy N/A N/A N/A WSW 10 17 N/A 10 16 N/A
3:15 pm 15:15 Partly Cloudy N/A N/A N/A W 13 20 N/A 10 16 N/A
3:35 pm 15:35 Partly Cloudy N/A N/A N/A W 12 19 N/A 10 16 N/A
3:55 pm 15:55 Mostly Cloudy N/A N/A N/A W 17 28 N/A 10 16 N/A
4:15 pm 16:15 Mostly Cloudy N/A N/A N/A WSW 14 22 N/A 10 16 N/A
4:35 pm 16:35 Partly Cloudy N/A N/A N/A WSW 13 20 N/A 10 16 N/A
4:55 pm 16:55 Mostly Cloudy N/A N/A N/A W 14 22 N/A 10 16 N/A
5:15 pm 17:15 Partly Cloudy N/A N/A N/A W 15 24 N/A 10 16 N/A
5:35 pm 17:35 Cloudy N/A N/A N/A W 14 22 N/A 10 16 N/A
5:55 pm 17:55 Mostly Cloudy N/A N/A N/A W 12 19 N/A 10 16 N/A
6:15 pm 18:15 Mostly Cloudy N/A N/A N/A WSW 13 20 N/A 10 16 N/A
6:35 pm 18:35 Mostly Cloudy with Nearby Thunderstorms N/A N/A N/A W 10 17 N/A 10 16 N/A
6:55 pm 18:55 Mostly Cloudy N/A N/A N/A W 9 15 N/A 10 16 N/A
7:15 pm 19:15 Partly Cloudy N/A N/A N/A W 9 15 N/A 10 16 N/A
7:35 pm 19:35 Mostly Cloudy N/A N/A N/A WNW 8 13 N/A 10 16 N/A
7:55 pm 19:55 Partly Cloudy N/A N/A N/A NW 7 11 N/A 10 16 N/A
8:15 pm 20:15 Partly Cloudy N/A N/A N/A NW 7 11 N/A 10 16 N/A
8:35 pm 20:35 Partly Cloudy N/A N/A N/A W 5 7 N/A 10 16 N/A
8:55 pm 20:55 Partly Cloudy N/A N/A N/A W 8 13 N/A 10 16 N/A
9:15 pm 21:15 Partly Cloudy N/A N/A N/A N 3 6 N/A 10 16 N/A
9:35 pm 21:35 Clear N/A N/A N/A NNW 5 7 N/A 10 16 N/A
9:55 pm 21:55 Clear N/A N/A N/A WNW 5 7 N/A 10 16 N/A
10:15 pm 22:15 Clear N/A N/A N/A NNW 3 6 N/A 7 11 N/A
10:35 pm 22:35 Clear N/A N/A N/A WNW 3 6 N/A 10 16 N/A
10:55 pm 22:55 Clear N/A N/A N/A N 3 6 N/A 10 16 N/A
11:15 pm 23:15 Clear N/A N/A N/A N 5 7 N/A 10 16 N/A
11:35 pm 23:35 Clear N/A N/A N/A NW 6 9 N/A 10 16 N/A
11:55 pm 23:55 Clear N/A N/A N/A NNW 6 9 N/A 10 16 N/A

Powered by AerisWeather